GEOSCAN 6 (RS92S6)

Last updated on Fri Dec 19 2025 00:03:12 GMT+0000 (Coordinated Universal Time)

1 64879U 25155D 25352.57853548 .00009526 00000+0 37651-3 0 9990 2 64879 97.4337 316.2610 0010736 94.4325 265.8140 15.25649791 53184
UTC large
Height (km)
Speed (km/s)
/
Latitude / Longitude
Inclination (degrees)
Orbital Period (minutes)
Azimuth
Elevation
Range (km)
Doppler Factor

Next 0 passes for location: London (51.5072 / 0.1276)

Sorry there are no passes over London.